TimeEDT,TemperatureF,Dew PointF,Humidity,Sea Level PressureIn,VisibilityMPH,Wind Direction,Wind SpeedMPH,Gust SpeedMPH,PrecipitationIn,Events,Conditions,WindDirDegrees,DateUTC
12:56 AM,75.0,73.9,96,29.94,10.0,SSW,3.5,-,N/A,,Clear,210,2013-09-01 04:56:00
1:56 AM,75.0,73.9,96,29.94,8.0,SSW,4.6,-,N/A,,Clear,200,2013-09-01 05:56:00
2:56 AM,75.9,73.9,94,29.93,10.0,SW,5.8,-,N/A,,Clear,230,2013-09-01 06:56:00
3:56 AM,75.0,73.9,96,29.91,8.0,Calm,Calm,-,N/A,,Clear,0,2013-09-01 07:56:00
4:56 AM,75.0,73.9,96,29.91,8.0,SW,4.6,-,N/A,,Clear,220,2013-09-01 08:56:00
5:56 AM,75.0,73.9,96,29.92,7.0,SSW,3.5,-,N/A,,Clear,210,2013-09-01 09:56:00
6:56 AM,75.0,73.9,96,29.94,5.0,WSW,6.9,-,0.01,,Clear,240,2013-09-01 10:56:00
7:56 AM,75.9,75.0,97,29.94,6.0,WSW,4.6,-,N/A,,Clear,240,2013-09-01 11:56:00
8:56 AM,80.1,75.9,87,29.95,9.0,SW,5.8,-,N/A,,Clear,230,2013-09-01 12:56:00
9:56 AM,82.0,75.9,82,29.96,10.0,WSW,8.1,-,N/A,,Mostly Cloudy,240,2013-09-01 13:56:00
10:09 AM,82.4,75.2,79,29.96,10.0,WSW,5.8,-,N/A,,Scattered Clouds,250,2013-09-01 14:09:00
10:56 AM,82.9,73.9,74,29.96,10.0,SW,5.8,-,N/A,,Scattered Clouds,230,2013-09-01 14:56:00
11:56 AM,86.0,73.9,67,29.95,10.0,WSW,10.4,-,N/A,,Clear,240,2013-09-01 15:56:00
12:56 PM,88.0,72.0,59,29.94,10.0,WSW,11.5,-,N/A,,Clear,240,2013-09-01 16:56:00
1:56 PM,88.0,75.9,67,29.91,10.0,South,9.2,-,N/A,,Scattered Clouds,180,2013-09-01 17:56:00
2:56 PM,88.0,75.9,67,29.89,10.0,South,5.8,-,N/A,,Partly Cloudy,180,2013-09-01 18:56:00
3:56 PM,88.0,75.9,67,29.86,10.0,South,11.5,-,N/A,,Partly Cloudy,170,2013-09-01 19:56:00
5:56 PM,84.9,75.9,74,29.86,10.0,South,13.8,17.3,N/A,,Clear,180,2013-09-01 21:56:00
6:56 PM,82.0,75.9,82,29.86,10.0,South,10.4,-,N/A,,Clear,180,2013-09-01 22:56:00
7:56 PM,80.1,75.0,85,29.89,10.0,SSW,6.9,-,N/A,,Clear,200,2013-09-01 23:56:00
8:56 PM,79.0,75.9,90,29.89,10.0,South,6.9,-,N/A,,Clear,190,2013-09-02 00:56:00
9:56 PM,79.0,75.0,88,29.91,10.0,SSW,6.9,-,N/A,,Clear,210,2013-09-02 01:56:00
10:56 PM,78.1,75.0,90,29.92,10.0,SSW,6.9,-,N/A,,Clear,200,2013-09-02 02:56:00
11:56 PM,78.1,75.0,90,29.91,9.0,SSW,6.9,-,N/A,,Partly Cloudy,210,2013-09-02 03:56:00